timestamp,wind_dir_avg,wind_spd_avg,wind_spd_max_dir,wind_spd_gust,battery_voltage,lat,long
2023-11-28 00:04:01+00:00,134.0,6.05,137.0,6.72,12.41,47.59359,-54.27349
2023-11-28 00:14:00+00:00,134.0,9.7,133.0,11.58,12.41,47.59359,-54.27349
2023-11-28 00:24:00+00:00,138.0,5.89,146.0,7.92,12.41,47.59359,-54.27349
2023-11-28 00:34:00+00:00,138.0,6.66,125.0,8.47,12.41,47.59359,-54.27349
2023-11-28 00:44:00+00:00,126.0,7.36,118.0,10.39,12.41,47.59359,-54.27349
2023-11-28 00:54:00+00:00,137.0,11.95,142.0,13.97,12.41,47.59359,-54.27349
2023-11-28 01:04:00+00:00,138.0,11.67,139.0,13.69,12.41,47.59359,-54.27349
2023-11-28 01:14:01+00:00,145.0,8.63,140.0,9.69,12.41,47.59359,-54.27349
2023-11-28 01:24:01+00:00,145.0,10.79,139.0,13.59,12.41,47.59359,-54.27349
2023-11-28 01:34:01+00:00,143.0,10.17,138.0,12.75,12.41,47.59359,-54.27349
2023-11-28 01:44:01+00:00,153.0,9.39,161.0,12.42,12.41,47.59359,-54.27349
2023-11-28 01:54:01+00:00,154.0,10.34,145.0,11.89,12.41,47.59359,-54.27349
2023-11-28 02:04:01+00:00,145.0,9.16,148.0,11.62,12.41,47.59359,-54.27349
2023-11-28 02:14:01+00:00,140.0,9.2,134.0,10.38,12.33,47.59359,-54.27349
2023-11-28 02:24:01+00:00,145.0,8.51,142.0,10.06,12.33,47.59359,-54.27349
2023-11-28 02:34:01+00:00,145.0,10.95,144.0,12.69,12.33,47.59359,-54.27349
2023-11-28 02:44:01+00:00,140.0,10.62,139.0,12.46,12.33,47.59359,-54.27349
2023-11-28 02:54:01+00:00,145.0,9.39,144.0,10.22,12.33,47.59359,-54.27349
2023-11-28 03:04:01+00:00,147.0,9.03,150.0,11.06,12.33,47.59359,-54.27349
2023-11-28 03:14:01+00:00,144.0,10.06,143.0,11.86,12.33,47.59359,-54.27349
2023-11-28 03:24:01+00:00,129.0,8.53,137.0,10.77,12.33,47.59359,-54.27349
2023-11-28 03:34:01+00:00,134.0,9.23,132.0,10.59,12.33,47.59359,-54.27349
2023-11-28 03:44:01+00:00,137.0,10.34,139.0,12.13,12.33,47.59359,-54.27349
2023-11-28 03:54:01+00:00,135.0,9.98,134.0,12.71,12.33,47.59359,-54.27349
2023-11-28 04:04:01+00:00,136.0,9.13,136.0,11.04,12.33,47.59359,-54.27349
2023-11-28 04:14:00+00:00,146.0,11.86,152.0,13.74,12.33,47.59359,-54.27349
2023-11-28 04:24:00+00:00,145.0,10.12,144.0,11.94,12.33,47.59359,-54.27349
2023-11-28 04:34:00+00:00,144.0,9.45,147.0,10.79,12.33,47.59359,-54.27349
2023-11-28 04:44:00+00:00,157.0,10.85,157.0,12.62,12.33,47.59359,-54.27349
2023-11-28 04:54:00+00:00,152.0,9.86,160.0,11.78,12.33,47.59359,-54.27349
2023-11-28 05:04:00+00:00,146.0,9.77,149.0,10.98,12.33,47.59359,-54.27349
2023-11-28 05:14:00+00:00,138.0,9.21,141.0,10.29,12.33,47.59359,-54.27349
2023-11-28 05:24:00+00:00,142.0,10.09,140.0,12.09,12.33,47.59359,-54.27349
2023-11-28 05:34:00+00:00,137.0,10.57,137.0,12.55,12.33,47.59359,-54.27349
2023-11-28 05:44:00+00:00,143.0,9.9,140.0,11.55,12.33,47.59359,-54.27349
2023-11-28 05:54:00+00:00,142.0,10.67,145.0,12.61,12.33,47.59359,-54.27349
2023-11-28 06:04:00+00:00,141.0,9.38,145.0,10.8,12.33,47.59359,-54.27349
2023-11-28 06:14:00+00:00,139.0,10.55,140.0,11.37,12.25,47.59359,-54.27349
2023-11-28 06:24:00+00:00,136.0,11.53,134.0,13.61,12.25,47.59359,-54.27349
2023-11-28 06:34:00+00:00,125.0,7.94,129.0,8.98,12.25,47.59359,-54.27349
2023-11-28 06:44:00+00:00,140.0,9.12,134.0,10.76,12.25,47.59359,-54.27349
2023-11-28 06:54:00+00:00,131.0,6.92,130.0,7.92,12.25,47.59359,-54.27349
2023-11-28 07:04:00+00:00,140.0,7.26,141.0,8.58,12.25,47.59359,-54.27349
2023-11-28 07:14:00+00:00,140.0,10.15,142.0,12.45,12.25,47.59359,-54.27349
2023-11-28 07:24:00+00:00,130.0,6.68,126.0,9.08,12.25,47.59359,-54.27349
2023-11-28 07:34:00+00:00,116.0,5.63,109.0,7.84,12.25,47.59359,-54.27349
2023-11-28 07:44:00+00:00,113.0,4.75,123.0,7.68,12.25,47.59359,-54.27349
2023-11-28 07:54:00+00:00,110.0,6.05,125.0,8.85,12.25,47.59359,-54.27349
2023-11-28 08:04:00+00:00,105.0,2.18,89.0,4.85,12.25,47.59359,-54.27349
2023-11-28 08:14:01+00:00,143.0,2.57,149.0,3.34,12.25,47.59359,-54.27349
2023-11-28 08:24:01+00:00,123.0,3.74,117.0,5.83,12.25,47.59359,-54.27349
2023-11-28 08:34:01+00:00,134.0,3.04,164.0,3.96,12.25,47.59359,-54.27349
2023-11-28 08:44:01+00:00,125.0,4.62,108.0,7.09,12.25,47.59359,-54.27349
2023-11-28 08:54:01+00:00,128.0,3.95,108.0,5.95,12.25,47.59359,-54.27349
2023-11-28 09:04:01+00:00,122.0,5.02,124.0,6.62,12.25,47.59359,-54.27349
2023-11-28 09:14:01+00:00,121.0,7.54,125.0,9.73,12.25,47.59359,-54.27349
2023-11-28 09:24:01+00:00,135.0,7.26,143.0,9.42,12.25,47.59359,-54.27349
2023-11-28 09:34:01+00:00,142.0,5.69,143.0,7.75,12.25,47.59359,-54.27349
2023-11-28 09:44:01+00:00,143.0,6.4,145.0,7.51,12.25,47.59359,-54.27349
2023-11-28 09:54:01+00:00,148.0,9.56,152.0,12.59,12.25,47.59359,-54.27349
2023-11-28 10:04:01+00:00,147.0,11.43,153.0,12.98,12.25,47.59359,-54.27349
2023-11-28 10:14:00+00:00,149.0,11.17,142.0,12.84,12.25,47.59359,-54.27349
2023-11-28 10:24:00+00:00,149.0,11.11,148.0,14.18,12.25,47.59359,-54.27349
2023-11-28 10:34:00+00:00,149.0,12.27,144.0,13.93,12.25,47.59359,-54.27349
2023-11-28 10:44:00+00:00,151.0,13.06,153.0,15.23,12.25,47.59359,-54.27349
2023-11-28 10:54:00+00:00,147.0,13.37,148.0,15.56,12.25,47.59359,-54.27349
2023-11-28 11:04:00+00:00,149.0,13.22,155.0,16.17,12.25,47.59359,-54.27349
2023-11-28 11:14:00+00:00,152.0,11.53,155.0,15.37,12.17,47.59359,-54.27349
2023-11-28 11:24:00+00:00,153.0,12.06,159.0,14.47,12.17,47.59359,-54.27349
2023-11-28 11:34:00+00:00,152.0,11.81,154.0,13.8,12.17,47.59359,-54.27349
2023-11-28 11:44:00+00:00,146.0,13.17,147.0,19.03,12.17,47.59359,-54.27349
2023-11-28 11:54:00+00:00,157.0,13.79,156.0,15.6,12.17,47.59359,-54.27349
2023-11-28 12:04:00+00:00,152.0,13.29,151.0,15.45,12.17,47.59359,-54.27349
2023-11-28 12:14:00+00:00,155.0,13.36,159.0,15.94,12.17,47.59359,-54.27349
2023-11-28 12:24:00+00:00,156.0,13.56,151.0,16.57,12.17,47.59359,-54.27349
2023-11-28 12:34:00+00:00,160.0,13.48,157.0,16.63,12.17,47.59359,-54.27349
2023-11-28 12:44:00+00:00,159.0,13.1,162.0,15.47,12.17,47.59359,-54.27349
2023-11-28 12:54:00+00:00,159.0,12.27,160.0,14.06,12.17,47.59359,-54.27349
2023-11-28 13:04:00+00:00,157.0,11.97,163.0,14.76,12.17,47.59359,-54.27349
2023-11-28 13:14:00+00:00,163.0,12.94,168.0,15.05,12.17,47.59359,-54.27349
2023-11-28 13:24:00+00:00,164.0,13.75,164.0,16.1,12.17,47.59359,-54.27349
2023-11-28 13:34:00+00:00,162.0,12.04,161.0,13.08,12.17,47.59359,-54.27349
2023-11-28 13:44:00+00:00,162.0,12.0,163.0,13.51,12.17,47.59359,-54.27349
2023-11-28 13:54:00+00:00,164.0,11.58,147.0,14.17,12.17,47.59359,-54.27349
2023-11-28 14:04:00+00:00,162.0,12.85,172.0,15.25,12.17,47.59359,-54.27349
2023-11-28 14:14:01+00:00,150.0,11.71,140.0,13.62,12.17,47.59359,-54.27349
2023-11-28 14:24:01+00:00,144.0,10.1,148.0,11.53,12.17,47.59359,-54.27349
2023-11-28 14:34:01+00:00,147.0,10.67,145.0,12.01,12.17,47.59359,-54.27349
2023-11-28 14:44:01+00:00,160.0,12.63,168.0,14.37,12.17,47.59359,-54.27349
2023-11-28 14:54:01+00:00,159.0,13.16,151.0,15.96,12.17,47.59359,-54.27349
2023-11-28 15:04:01+00:00,156.0,15.47,148.0,18.47,12.17,47.59359,-54.27349
2023-11-28 15:14:01+00:00,162.0,15.33,162.0,18.92,12.17,47.59359,-54.27349
2023-11-28 15:24:01+00:00,162.0,15.44,157.0,18.15,12.17,47.59359,-54.27349
2023-11-28 15:34:01+00:00,162.0,14.64,164.0,17.31,12.17,47.59359,-54.27349
2023-11-28 15:44:01+00:00,163.0,17.28,168.0,20.96,12.17,47.59359,-54.27349
2023-11-28 15:54:01+00:00,162.0,15.97,157.0,18.89,12.17,47.59359,-54.27349
2023-11-28 16:04:01+00:00,163.0,15.57,167.0,18.64,12.17,47.59359,-54.27349
2023-11-28 16:14:00+00:00,167.0,14.59,169.0,17.03,12.17,47.59359,-54.27349
2023-11-28 16:24:00+00:00,168.0,15.09,153.0,18.35,12.17,47.59359,-54.27349
2023-11-28 16:34:00+00:00,166.0,15.17,171.0,18.54,12.17,47.59359,-54.27349
2023-11-28 16:44:00+00:00,165.0,13.8,169.0,16.26,12.17,47.59359,-54.27349
2023-11-28 16:54:00+00:00,165.0,13.55,170.0,15.79,12.17,47.59359,-54.27349
2023-11-28 17:04:00+00:00,162.0,13.15,161.0,15.52,12.17,47.59359,-54.27349
2023-11-28 17:14:01+00:00,162.0,15.17,159.0,18.71,12.25,47.59359,-54.27349
2023-11-28 17:24:01+00:00,161.0,15.47,152.0,18.72,12.25,47.59359,-54.27349
2023-11-28 17:34:01+00:00,163.0,14.99,159.0,18.17,12.25,47.59359,-54.27349
2023-11-28 17:44:01+00:00,161.0,15.43,157.0,18.49,12.25,47.59359,-54.27349
2023-11-28 17:54:01+00:00,161.0,15.57,163.0,18.14,12.25,47.59359,-54.27349
2023-11-28 18:04:01+00:00,160.0,12.29,165.0,14.58,12.25,47.59359,-54.27349
2023-11-28 18:14:00+00:00,164.0,14.97,159.0,17.97,12.17,47.59359,-54.27349
2023-11-28 18:24:00+00:00,163.0,15.03,167.0,18.61,12.17,47.59359,-54.27349
2023-11-28 18:34:00+00:00,162.0,14.8,160.0,17.67,12.17,47.59359,-54.27349
2023-11-28 18:44:00+00:00,161.0,16.22,156.0,19.25,12.17,47.59359,-54.27349
2023-11-28 18:54:00+00:00,160.0,14.54,160.0,17.04,12.17,47.59359,-54.27349
2023-11-28 19:04:00+00:00,165.0,16.47,167.0,20.0,12.17,47.59359,-54.27349
2023-11-28 19:14:01+00:00,163.0,16.98,166.0,20.35,12.17,47.59359,-54.27349
2023-11-28 19:24:01+00:00,162.0,20.15,159.0,24.58,12.17,47.59359,-54.27349
2023-11-28 19:34:01+00:00,165.0,17.22,168.0,19.79,12.17,47.59359,-54.27349
2023-11-28 19:44:01+00:00,164.0,18.26,170.0,21.89,12.17,47.59359,-54.27349
2023-11-28 19:54:01+00:00,169.0,14.95,169.0,18.09,12.17,47.59359,-54.27349
2023-11-28 20:04:01+00:00,170.0,15.7,173.0,18.58,12.17,47.59359,-54.27349
2023-11-28 20:14:00+00:00,176.0,16.1,176.0,19.25,12.09,47.59359,-54.27349
2023-11-28 20:24:00+00:00,183.0,16.53,182.0,20.55,12.09,47.59359,-54.27349
2023-11-28 20:34:00+00:00,186.0,17.2,187.0,19.99,12.09,47.59359,-54.27349
2023-11-28 20:44:00+00:00,176.0,17.69,173.0,21.44,12.09,47.59359,-54.27349
2023-11-28 20:54:00+00:00,181.0,18.79,181.0,22.66,12.09,47.59359,-54.27349
2023-11-28 21:04:00+00:00,188.0,17.09,188.0,19.84,12.09,47.59359,-54.27349
2023-11-28 21:14:01+00:00,192.0,15.08,193.0,17.97,12.09,47.59359,-54.27349
2023-11-28 21:24:01+00:00,202.0,15.17,202.0,17.97,12.09,47.59359,-54.27349
2023-11-28 21:34:01+00:00,204.0,12.05,212.0,13.83,12.09,47.59359,-54.27349
2023-11-28 21:44:01+00:00,210.0,10.16,216.0,11.85,12.09,47.59359,-54.27349
2023-11-28 21:54:01+00:00,231.0,10.04,232.0,11.79,12.09,47.59359,-54.27349
2023-11-28 22:04:01+00:00,251.0,11.87,253.0,14.28,12.09,47.59359,-54.27349
2023-11-28 22:14:01+00:00,240.0,9.94,252.0,15.07,12.09,47.59359,-54.27349
2023-11-28 22:24:01+00:00,253.0,13.8,250.0,15.26,12.09,47.59359,-54.27349
2023-11-28 22:34:01+00:00,251.0,13.55,251.0,15.04,12.09,47.59359,-54.27349
2023-11-28 22:44:01+00:00,253.0,13.11,250.0,15.29,12.09,47.59359,-54.27349
2023-11-28 22:54:01+00:00,245.0,10.1,238.0,15.07,12.09,47.59359,-54.27349
2023-11-28 23:04:01+00:00,242.0,12.45,249.0,15.07,12.09,47.59359,-54.27349
2023-11-28 23:14:01+00:00,239.0,9.37,252.0,13.97,12.09,47.59359,-54.27349
2023-11-28 23:24:01+00:00,239.0,9.41,243.0,11.3,12.09,47.59359,-54.27349
2023-11-28 23:34:01+00:00,244.0,11.32,251.0,14.58,12.09,47.59359,-54.27349
2023-11-28 23:44:01+00:00,244.0,11.64,247.0,14.62,12.09,47.59359,-54.27349
2023-11-28 23:54:01+00:00,236.0,8.97,241.0,10.65,12.09,47.59359,-54.27349
